Time,TemperatureF,DewpointF,PressureIn,WindDirection,WindDirectionDegrees,WindSpeedMPH,WindSpeedGustMPH,Humidity,HourlyPrecipIn,Conditions,Clouds,dailyrainin,SoftwareType,DateUTC
2013-02-02 00:00:00,40.5,39.7,30.19,North,0,0.0,0.0,97,0.00,,,0.00,LWC V2.00 B2112,2013-02-02 08:00:00,
2013-02-02 00:10:00,40.5,39.7,30.19,North,0,0.0,0.0,97,0.00,,,0.00,LWC V2.00 B2112,2013-02-02 08:10:00,
2013-02-02 00:20:00,40.5,39.7,30.19,North,0,0.0,0.0,97,0.00,,,0.00,LWC V2.00 B2112,2013-02-02 08:20:00,
2013-02-02 00:30:00,39.9,39.1,30.19,North,0,0.0,0.0,97,0.00,,,0.00,LWC V2.00 B2112,2013-02-02 08:30:00,
2013-02-02 00:40:00,39.9,39.1,30.19,North,0,0.0,0.0,97,0.00,,,0.00,LWC V2.00 B2112,2013-02-02 08:40:00,
2013-02-02 00:50:00,39.9,39.1,30.19,North,0,0.0,0.0,97,0.00,,,0.00,LWC V2.00 B2112,2013-02-02 08:50:00,
2013-02-02 01:00:00,39.7,38.9,30.19,North,0,0.0,0.0,97,0.00,,,0.00,LWC V2.00 B2112,2013-02-02 09:00:00,
2013-02-02 01:10:00,39.7,38.9,30.19,North,0,0.0,0.0,97,0.00,,,0.00,LWC V2.00 B2112,2013-02-02 09:10:00,
2013-02-02 01:20:00,39.7,38.9,30.19,North,0,0.0,0.0,97,0.00,,,0.00,LWC V2.00 B2112,2013-02-02 09:20:00,
2013-02-02 01:30:00,39.7,38.9,30.19,North,0,0.0,0.0,97,0.00,,,0.00,LWC V2.00 B2112,2013-02-02 09:30:00,
2013-02-02 01:40:00,39.9,39.1,30.20,North,0,0.0,0.0,97,0.00,,,0.00,LWC V2.00 B2112,2013-02-02 09:40:00,
2013-02-02 01:50:00,39.9,39.1,30.20,North,0,0.0,0.0,97,0.00,,,0.00,LWC V2.00 B2112,2013-02-02 09:50:00,
2013-02-02 02:00:00,39.9,39.1,30.20,North,0,0.0,0.0,97,0.00,,,0.00,LWC V2.00 B2112,2013-02-02 10:00:00,
2013-02-02 02:10:00,40.9,40.4,30.21,North,0,0.0,0.0,98,0.00,,,0.00,LWC V2.00 B2112,2013-02-02 10:10:00,
2013-02-02 02:20:00,40.9,40.4,30.21,North,0,0.0,0.0,98,0.00,,,0.00,LWC V2.00 B2112,2013-02-02 10:20:00,
2013-02-02 02:30:00,40.9,40.4,30.21,North,0,0.0,0.0,98,0.00,,,0.00,LWC V2.00 B2112,2013-02-02 10:30:00,
2013-02-02 02:40:00,41.8,41.3,30.22,North,0,0.0,0.0,98,0.00,,,0.00,LWC V2.00 B2112,2013-02-02 10:40:00,
2013-02-02 02:50:00,41.8,41.3,30.22,North,0,0.0,0.0,98,0.00,,,0.00,LWC V2.00 B2112,2013-02-02 10:50:00,
2013-02-02 03:00:00,41.8,41.3,30.22,North,0,0.0,0.0,98,0.00,,,0.00,LWC V2.00 B2112,2013-02-02 11:00:00,
2013-02-02 03:10:00,42.4,41.9,30.21,North,0,0.0,0.0,98,0.00,,,0.00,LWC V2.00 B2112,2013-02-02 11:10:00,
2013-02-02 03:20:00,42.4,41.9,30.21,North,0,0.0,0.0,98,0.00,,,0.00,LWC V2.00 B2112,2013-02-02 11:20:00,
2013-02-02 03:30:00,42.4,41.9,30.21,North,0,0.0,0.0,98,0.00,,,0.00,LWC V2.00 B2112,2013-02-02 11:30:00,
2013-02-02 03:40:00,43.1,42.6,30.20,North,0,0.0,0.0,98,0.00,,,0.00,LWC V2.00 B2112,2013-02-02 11:40:00,
2013-02-02 03:50:00,43.1,42.6,30.20,North,0,0.0,0.0,98,0.00,,,0.00,LWC V2.00 B2112,2013-02-02 11:50:00,
2013-02-02 04:00:00,43.1,42.6,30.20,North,0,0.0,0.0,98,0.00,,,0.00,LWC V2.00 B2112,2013-02-02 12:00:00,
2013-02-02 04:10:00,43.5,43.0,30.19,North,0,0.0,0.0,98,0.00,,,0.00,LWC V2.00 B2112,2013-02-02 12:10:00,
2013-02-02 04:20:00,43.5,43.0,30.19,North,0,0.0,0.0,98,0.00,,,0.00,LWC V2.00 B2112,2013-02-02 12:20:00,
2013-02-02 04:30:00,43.5,43.0,30.19,North,0,0.0,0.0,98,0.00,,,0.00,LWC V2.00 B2112,2013-02-02 12:30:00,
2013-02-02 04:40:00,44.2,43.7,30.19,North,0,0.0,0.0,98,0.00,,,0.00,LWC V2.00 B2112,2013-02-02 12:40:00,
2013-02-02 04:50:00,44.2,43.7,30.19,North,0,0.0,0.0,98,0.00,,,0.00,LWC V2.00 B2112,2013-02-02 12:50:00,
2013-02-02 05:00:00,44.2,43.7,30.19,North,0,0.0,0.0,98,0.00,,,0.00,LWC V2.00 B2112,2013-02-02 13:00:00,
2013-02-02 05:10:00,44.5,44.0,30.20,North,0,0.0,0.0,98,0.00,,,0.00,LWC V2.00 B2112,2013-02-02 13:10:00,
2013-02-02 05:20:00,44.5,44.0,30.20,North,0,0.0,0.0,98,0.00,,,0.00,LWC V2.00 B2112,2013-02-02 13:20:00,
2013-02-02 05:30:00,44.5,44.0,30.20,North,0,0.0,0.0,98,0.00,,,0.00,LWC V2.00 B2112,2013-02-02 13:30:00,
2013-02-02 05:40:00,44.7,44.2,30.21,North,0,0.0,0.0,98,0.00,,,0.00,LWC V2.00 B2112,2013-02-02 13:40:00,
2013-02-02 05:50:00,44.7,44.2,30.21,North,0,0.0,0.0,98,0.00,,,0.00,LWC V2.00 B2112,2013-02-02 13:50:00,
2013-02-02 06:00:00,44.7,44.2,30.21,North,0,0.0,0.0,98,0.00,,,0.00,LWC V2.00 B2112,2013-02-02 14:00:00,
2013-02-02 06:10:00,45.1,44.6,30.20,North,0,0.0,0.0,98,0.00,,,0.00,LWC V2.00 B2112,2013-02-02 14:10:00,
2013-02-02 06:20:00,45.1,44.6,30.20,North,0,0.0,0.0,98,0.00,,,0.00,LWC V2.00 B2112,2013-02-02 14:20:00,
2013-02-02 06:33:00,45.7,45.2,30.22,SW,217,0.0,0.0,98,0.00,,,0.00,LWC V2.00 B2112,2013-02-02 14:33:00,
2013-02-02 06:38:00,45.7,45.2,30.22,SW,217,0.0,0.0,98,0.00,,,0.00,LWC V2.00 B2112,2013-02-02 14:38:00,
2013-02-02 06:43:00,45.7,45.2,30.22,SW,217,0.0,0.0,98,0.00,,,0.00,LWC V2.00 B2112,2013-02-02 14:43:00,
2013-02-02 06:48:00,45.8,45.3,30.22,SW,217,0.0,0.0,98,0.00,,,0.00,LWC V2.00 B2112,2013-02-02 14:48:00,
2013-02-02 06:53:00,45.9,45.4,30.22,SW,217,0.0,0.0,98,0.00,,,0.00,LWC V2.00 B2112,2013-02-02 14:53:00,
2013-02-02 06:58:00,45.9,45.4,30.22,SW,217,0.0,0.0,98,0.00,,,0.00,LWC V2.00 B2112,2013-02-02 14:58:00,
2013-02-02 07:03:00,45.9,45.4,30.22,SW,215,0.0,0.0,98,0.00,,,0.00,LWC V2.00 B2112,2013-02-02 15:03:00,
2013-02-02 07:08:00,46.0,45.5,30.22,SW,215,0.0,0.0,98,0.00,,,0.00,LWC V2.00 B2112,2013-02-02 15:08:00,
2013-02-02 07:13:00,46.1,45.6,30.23,SW,215,0.0,0.0,98,0.00,,,0.00,LWC V2.00 B2112,2013-02-02 15:13:00,
2013-02-02 07:18:00,46.1,45.6,30.23,SW,215,0.0,0.0,98,0.00,,,0.00,LWC V2.00 B2112,2013-02-02 15:18:00,
2013-02-02 07:23:00,46.2,45.7,30.23,SW,215,0.0,0.0,98,0.00,,,0.00,LWC V2.00 B2112,2013-02-02 15:23:00,
2013-02-02 07:28:00,46.2,45.7,30.23,SW,215,0.0,0.0,98,0.00,,,0.00,LWC V2.00 B2112,2013-02-02 15:28:00,
2013-02-02 07:33:00,46.3,45.8,30.23,SW,215,0.0,0.0,98,0.00,,,0.00,LWC V2.00 B2112,2013-02-02 15:33:00,
2013-02-02 07:38:00,46.3,45.8,30.23,SW,215,0.0,0.0,98,0.00,,,0.00,LWC V2.00 B2112,2013-02-02 15:38:00,
2013-02-02 07:43:00,46.4,45.9,30.23,SW,215,0.0,0.0,98,0.00,,,0.00,LWC V2.00 B2112,2013-02-02 15:43:00,
2013-02-02 07:48:00,46.4,45.9,30.23,SW,215,0.0,0.0,98,0.00,,,0.00,LWC V2.00 B2112,2013-02-02 15:48:00,
2013-02-02 07:53:00,46.4,45.9,30.24,SW,215,0.0,0.0,98,0.00,,,0.00,LWC V2.00 B2112,2013-02-02 15:53:00,
2013-02-02 07:58:00,46.5,46.0,30.24,SW,215,0.0,0.0,98,0.00,,,0.00,LWC V2.00 B2112,2013-02-02 15:58:00,
2013-02-02 08:03:00,46.5,46.0,30.24,SSW,212,0.0,0.0,98,0.00,,,0.00,LWC V2.00 B2112,2013-02-02 16:03:00,
2013-02-02 08:08:00,46.5,46.0,30.25,SSW,212,0.0,0.0,98,0.00,,,0.00,LWC V2.00 B2112,2013-02-02 16:08:00,
2013-02-02 08:13:00,46.6,46.1,30.25,SSW,213,0.0,0.0,98,0.00,,,0.00,LWC V2.00 B2112,2013-02-02 16:13:00,
2013-02-02 08:18:00,46.7,46.2,30.25,SSW,212,0.0,0.0,98,0.00,,,0.00,LWC V2.00 B2112,2013-02-02 16:18:00,
2013-02-02 08:23:00,46.7,46.2,30.25,SSW,212,0.0,0.0,98,0.00,,,0.00,LWC V2.00 B2112,2013-02-02 16:23:00,
2013-02-02 08:28:00,46.8,46.3,30.25,SSW,212,0.0,0.0,98,0.00,,,0.00,LWC V2.00 B2112,2013-02-02 16:28:00,
2013-02-02 08:33:00,46.9,46.4,30.25,SSW,212,0.0,0.0,98,0.00,,,0.00,LWC V2.00 B2112,2013-02-02 16:33:00,
2013-02-02 08:38:00,47.0,46.5,30.26,SSW,211,0.0,0.0,98,0.00,,,0.00,LWC V2.00 B2112,2013-02-02 16:38:00,
2013-02-02 08:43:00,47.1,46.6,30.26,SSW,212,0.0,0.0,98,0.00,,,0.00,LWC V2.00 B2112,2013-02-02 16:43:00,
2013-02-02 08:48:00,47.2,46.7,30.26,SSW,211,0.0,0.0,98,0.00,,,0.00,LWC V2.00 B2112,2013-02-02 16:48:00,
2013-02-02 08:53:00,47.2,46.7,30.26,SSW,212,0.0,0.0,98,0.00,,,0.00,LWC V2.00 B2112,2013-02-02 16:53:00,
2013-02-02 08:58:00,47.2,46.7,30.26,SSW,212,0.0,0.0,98,0.00,,,0.00,LWC V2.00 B2112,2013-02-02 16:58:00,
2013-02-02 09:03:00,47.3,46.8,30.26,SSW,212,0.0,0.0,98,0.00,,,0.00,LWC V2.00 B2112,2013-02-02 17:03:00,
2013-02-02 09:08:00,47.3,46.8,30.26,South,172,0.0,0.0,98,0.00,,,0.00,LWC V2.00 B2112,2013-02-02 17:08:00,
2013-02-02 09:13:00,47.4,46.9,30.26,South,172,0.0,0.0,98,0.00,,,0.00,LWC V2.00 B2112,2013-02-02 17:13:00,
2013-02-02 09:18:00,47.5,47.0,30.26,South,172,0.0,0.0,98,0.00,,,0.00,LWC V2.00 B2112,2013-02-02 17:18:00,
2013-02-02 09:23:00,47.6,47.1,30.26,South,172,0.0,0.0,98,0.00,,,0.00,LWC V2.00 B2112,2013-02-02 17:23:00,
2013-02-02 09:28:00,47.8,47.3,30.26,South,172,0.0,0.0,98,0.00,,,0.00,LWC V2.00 B2112,2013-02-02 17:28:00,
2013-02-02 09:33:00,47.9,47.4,30.26,South,172,0.0,0.0,98,0.00,,,0.00,LWC V2.00 B2112,2013-02-02 17:33:00,
2013-02-02 09:38:00,48.0,47.5,30.26,South,172,0.0,0.0,98,0.00,,,0.00,LWC V2.00 B2112,2013-02-02 17:38:00,
2013-02-02 09:43:00,48.1,47.6,30.26,South,172,0.0,0.0,98,0.00,,,0.00,LWC V2.00 B2112,2013-02-02 17:43:00,
2013-02-02 09:48:00,48.3,47.8,30.26,South,172,0.0,0.0,98,0.00,,,0.00,LWC V2.00 B2112,2013-02-02 17:48:00,
2013-02-02 09:53:00,48.4,47.9,30.27,South,172,0.0,0.0,98,0.00,,,0.00,LWC V2.00 B2112,2013-02-02 17:53:00,
2013-02-02 09:58:00,48.5,48.0,30.26,South,172,0.0,0.0,98,0.00,,,0.00,LWC V2.00 B2112,2013-02-02 17:58:00,
2013-02-02 10:03:00,48.5,48.0,30.26,South,172,0.0,0.0,98,0.00,,,0.00,LWC V2.00 B2112,2013-02-02 18:03:00,
2013-02-02 10:08:00,48.7,48.2,30.27,South,172,0.0,0.0,98,0.00,,,0.00,LWC V2.00 B2112,2013-02-02 18:08:00,
2013-02-02 10:13:00,48.7,48.2,30.27,South,172,0.0,0.0,98,0.00,,,0.00,LWC V2.00 B2112,2013-02-02 18:13:00,
2013-02-02 10:18:00,48.9,48.4,30.27,SW,235,0.0,1.0,98,0.00,,,0.00,LWC V2.00 B2112,2013-02-02 18:18:00,
2013-02-02 10:23:00,49.1,48.6,30.27,West,266,1.0,1.0,98,0.00,,,0.00,LWC V2.00 B2112,2013-02-02 18:23:00,
2013-02-02 10:28:00,49.3,48.8,30.27,WNW,295,0.0,0.0,98,0.00,,,0.00,LWC V2.00 B2112,2013-02-02 18:28:00,
2013-02-02 10:33:00,49.6,49.1,30.27,WSW,240,0.0,0.0,98,0.00,,,0.00,LWC V2.00 B2112,2013-02-02 18:33:00,
2013-02-02 10:38:00,49.7,49.2,30.27,WSW,240,0.0,0.0,98,0.00,,,0.00,LWC V2.00 B2112,2013-02-02 18:38:00,
2013-02-02 10:43:00,49.7,49.2,30.27,ESE,105,0.0,1.0,98,0.00,,,0.00,LWC V2.00 B2112,2013-02-02 18:43:00,
2013-02-02 10:48:00,49.9,49.4,30.27,East,96,1.0,1.0,98,0.00,,,0.00,LWC V2.00 B2112,2013-02-02 18:48:00,
2013-02-02 10:53:00,50.0,49.5,30.27,East,90,0.0,1.0,98,0.00,,,0.00,LWC V2.00 B2112,2013-02-02 18:53:00,
2013-02-02 10:58:00,50.1,49.6,30.27,NW,319,0.0,0.0,98,0.00,,,0.00,LWC V2.00 B2112,2013-02-02 18:58:00,
2013-02-02 11:03:00,50.2,49.4,30.26,ESE,120,1.0,2.0,97,0.00,,,0.00,LWC V2.00 B2112,2013-02-02 19:03:00,
2013-02-02 11:08:00,50.4,49.6,30.27,WNW,293,0.0,0.0,97,0.00,,,0.00,LWC V2.00 B2112,2013-02-02 19:08:00,
2013-02-02 11:13:00,50.7,49.9,30.26,NW,304,0.0,0.0,97,0.00,,,0.00,LWC V2.00 B2112,2013-02-02 19:13:00,
2013-02-02 11:18:00,50.9,50.1,30.26,NE,54,0.0,1.0,97,0.00,,,0.00,LWC V2.00 B2112,2013-02-02 19:18:00,
2013-02-02 11:23:00,50.9,49.8,30.26,SSW,201,0.0,1.0,96,0.00,,,0.00,LWC V2.00 B2112,2013-02-02 19:23:00,
2013-02-02 11:28:00,51.1,50.0,30.26,West,267,0.0,1.0,96,0.00,,,0.00,LWC V2.00 B2112,2013-02-02 19:28:00,
2013-02-02 11:33:00,51.4,50.3,30.26,East,86,1.0,1.0,96,0.00,,,0.00,LWC V2.00 B2112,2013-02-02 19:33:00,
2013-02-02 11:38:00,51.5,50.1,30.26,NNW,343,0.0,1.0,95,0.00,,,0.00,LWC V2.00 B2112,2013-02-02 19:38:00,
2013-02-02 11:43:00,51.6,49.9,30.26,ESE,103,0.0,0.0,94,0.00,,,0.00,LWC V2.00 B2112,2013-02-02 19:43:00,
2013-02-02 11:48:00,51.8,49.8,30.25,ESE,102,0.0,0.0,93,0.00,,,0.00,LWC V2.00 B2112,2013-02-02 19:48:00,
2013-02-02 11:53:00,52.1,49.8,30.25,NW,304,2.0,2.0,92,0.00,,,0.00,LWC V2.00 B2112,2013-02-02 19:53:00,
2013-02-02 11:58:00,52.4,50.1,30.25,WNW,298,0.0,0.0,92,0.00,,,0.00,LWC V2.00 B2112,2013-02-02 19:58:00,
2013-02-02 12:03:00,52.8,50.2,30.25,WNW,295,0.0,0.0,91,0.00,,,0.00,LWC V2.00 B2112,2013-02-02 20:03:00,
2013-02-02 12:08:00,53.0,50.1,30.24,East,101,0.0,1.0,90,0.00,,,0.00,LWC V2.00 B2112,2013-02-02 20:08:00,
2013-02-02 12:13:00,53.2,50.0,30.24,SE,137,0.0,2.0,89,0.00,,,0.00,LWC V2.00 B2112,2013-02-02 20:13:00,
2013-02-02 12:18:00,53.6,50.4,30.24,SW,217,0.0,2.0,89,0.00,,,0.00,LWC V2.00 B2112,2013-02-02 20:18:00,
2013-02-02 12:23:00,53.9,50.4,30.24,NNE,12,0.0,1.0,88,0.00,,,0.00,LWC V2.00 B2112,2013-02-02 20:23:00,
2013-02-02 12:28:00,54.1,50.6,30.24,NW,326,0.0,1.0,88,0.00,,,0.00,LWC V2.00 B2112,2013-02-02 20:28:00,
2013-02-02 12:33:00,54.3,50.2,30.24,SSW,210,1.0,2.0,86,0.00,,,0.00,LWC V2.00 B2112,2013-02-02 20:33:00,
2013-02-02 12:38:00,54.5,50.4,30.23,ESE,105,1.0,2.0,86,0.00,,,0.00,LWC V2.00 B2112,2013-02-02 20:38:00,
2013-02-02 12:43:00,54.5,50.4,30.23,South,174,0.0,1.0,86,0.00,,,0.00,LWC V2.00 B2112,2013-02-02 20:43:00,
2013-02-02 12:48:00,54.6,50.2,30.23,WNW,290,1.0,2.0,85,0.00,,,0.00,LWC V2.00 B2112,2013-02-02 20:48:00,
2013-02-02 12:53:00,54.8,50.4,30.23,ENE,57,0.0,2.0,85,0.00,,,0.00,LWC V2.00 B2112,2013-02-02 20:53:00,
2013-02-02 12:58:00,55.1,50.4,30.23,West,263,1.0,2.0,84,0.00,,,0.00,LWC V2.00 B2112,2013-02-02 20:58:00,
2013-02-02 13:03:00,55.3,50.2,30.23,ENE,68,1.0,4.0,83,0.00,,,0.00,LWC V2.00 B2112,2013-02-02 21:03:00,
2013-02-02 13:08:00,55.3,50.2,30.23,SSW,204,1.0,3.0,83,0.00,,,0.00,LWC V2.00 B2112,2013-02-02 21:08:00,
2013-02-02 13:13:00,55.3,49.9,30.22,SSW,197,1.0,4.0,82,0.00,,,0.00,LWC V2.00 B2112,2013-02-02 21:13:00,
2013-02-02 13:18:00,55.3,49.6,30.22,SE,128,0.0,3.0,81,0.00,,,0.00,LWC V2.00 B2112,2013-02-02 21:18:00,
2013-02-02 13:23:00,55.1,49.4,30.22,South,174,0.0,3.0,81,0.00,,,0.00,LWC V2.00 B2112,2013-02-02 21:23:00,
2013-02-02 13:28:00,55.0,49.6,30.22,West,278,0.0,1.0,82,0.00,,,0.00,LWC V2.00 B2112,2013-02-02 21:28:00,
2013-02-02 13:33:00,55.2,49.8,30.22,ESE,120,1.0,2.0,82,0.00,,,0.00,LWC V2.00 B2112,2013-02-02 21:33:00,
2013-02-02 13:38:00,55.2,49.5,30.21,SSE,153,2.0,2.0,81,0.00,,,0.00,LWC V2.00 B2112,2013-02-02 21:38:00,
2013-02-02 13:43:00,54.9,49.5,30.21,SSW,204,0.0,2.0,82,0.00,,,0.00,LWC V2.00 B2112,2013-02-02 21:43:00,
2013-02-02 13:48:00,55.3,49.9,30.21,SSE,159,0.0,0.0,82,0.00,,,0.00,LWC V2.00 B2112,2013-02-02 21:48:00,
2013-02-02 13:53:00,55.4,49.7,30.21,NE,54,0.0,3.0,81,0.00,,,0.00,LWC V2.00 B2112,2013-02-02 21:53:00,
2013-02-02 13:58:00,55.5,49.8,30.20,NW,308,0.0,2.0,81,0.00,,,0.00,LWC V2.00 B2112,2013-02-02 21:58:00,
2013-02-02 14:03:00,55.2,49.5,30.20,SSE,161,0.0,4.0,81,0.00,,,0.00,LWC V2.00 B2112,2013-02-02 22:03:00,
2013-02-02 14:08:00,54.7,49.0,30.20,SSE,167,2.0,6.0,81,0.00,,,0.00,LWC V2.00 B2112,2013-02-02 22:08:00,
2013-02-02 14:13:00,54.3,48.9,30.20,WSW,239,4.0,4.0,82,0.00,,,0.00,LWC V2.00 B2112,2013-02-02 22:13:00,
2013-02-02 14:18:00,54.1,48.7,30.20,East,96,1.0,4.0,82,0.00,,,0.00,LWC V2.00 B2112,2013-02-02 22:18:00,
2013-02-02 14:23:00,53.9,48.9,30.20,South,180,1.0,1.0,83,0.00,,,0.00,LWC V2.00 B2112,2013-02-02 22:23:00,
2013-02-02 14:28:00,53.7,48.3,30.20,East,101,0.0,3.0,82,0.00,,,0.00,LWC V2.00 B2112,2013-02-02 22:28:00,
2013-02-02 14:33:00,53.6,48.6,30.20,ENE,78,1.0,2.0,83,0.00,,,0.00,LWC V2.00 B2112,2013-02-02 22:33:00,
2013-02-02 14:38:00,53.5,48.8,30.20,SW,214,0.0,4.0,84,0.00,,,0.00,LWC V2.00 B2112,2013-02-02 22:38:00,
2013-02-02 14:43:00,53.5,48.8,30.20,NNE,30,1.0,3.0,84,0.00,,,0.00,LWC V2.00 B2112,2013-02-02 22:43:00,
2013-02-02 14:48:00,53.5,48.8,30.20,South,173,2.0,3.0,84,0.00,,,0.00,LWC V2.00 B2112,2013-02-02 22:48:00,
2013-02-02 14:53:00,53.6,48.6,30.20,ESE,117,1.0,5.0,83,0.00,,,0.00,LWC V2.00 B2112,2013-02-02 22:53:00,
2013-02-02 14:58:00,53.4,48.7,30.20,WSW,240,1.0,3.0,84,0.00,,,0.00,LWC V2.00 B2112,2013-02-02 22:58:00,
2013-02-02 15:03:00,53.3,48.6,30.20,NW,314,0.0,2.0,84,0.00,,,0.00,LWC V2.00 B2112,2013-02-02 23:03:00,
2013-02-02 15:08:00,53.3,48.6,30.20,West,278,1.0,3.0,84,0.00,,,0.00,LWC V2.00 B2112,2013-02-02 23:08:00,
2013-02-02 15:13:00,53.3,48.6,30.20,ESE,108,2.0,2.0,84,0.00,,,0.00,LWC V2.00 B2112,2013-02-02 23:13:00,
2013-02-02 15:18:00,53.1,48.4,30.20,SE,131,0.0,1.0,84,0.00,,,0.00,LWC V2.00 B2112,2013-02-02 23:18:00,
2013-02-02 15:23:00,52.9,48.2,30.20,SE,124,1.0,3.0,84,0.00,,,0.00,LWC V2.00 B2112,2013-02-02 23:23:00,
2013-02-02 15:28:00,52.8,48.1,30.20,SW,236,0.0,1.0,84,0.00,,,0.00,LWC V2.00 B2112,2013-02-02 23:28:00,
2013-02-02 15:33:00,52.6,47.9,30.20,WSW,245,0.0,5.0,84,0.00,,,0.00,LWC V2.00 B2112,2013-02-02 23:33:00,
2013-02-02 15:38:00,52.5,47.8,30.20,ENE,61,1.0,2.0,84,0.00,,,0.00,LWC V2.00 B2112,2013-02-02 23:38:00,
2013-02-02 15:43:00,52.2,47.5,30.20,WNW,283,1.0,2.0,84,0.00,,,0.00,LWC V2.00 B2112,2013-02-02 23:43:00,
2013-02-02 15:48:00,52.1,47.7,30.20,West,274,0.0,1.0,85,0.00,,,0.00,LWC V2.00 B2112,2013-02-02 23:48:00,
2013-02-02 15:53:00,51.9,47.5,30.20,ESE,122,1.0,1.0,85,0.00,,,0.00,LWC V2.00 B2112,2013-02-02 23:53:00,
2013-02-02 15:58:00,51.7,47.3,30.21,WNW,293,0.0,3.0,85,0.00,,,0.00,LWC V2.00 B2112,2013-02-02 23:58:00,
2013-02-02 16:03:00,51.7,47.6,30.21,NE,54,0.0,0.0,86,0.00,,,0.00,LWC V2.00 B2112,2013-02-03 00:03:00,
2013-02-02 16:08:00,51.6,47.5,30.21,North,353,0.0,0.0,86,0.00,,,0.00,LWC V2.00 B2112,2013-02-03 00:08:00,
2013-02-02 16:13:00,51.5,47.5,30.21,WSW,245,1.0,1.0,86,0.00,,,0.00,LWC V2.00 B2112,2013-02-03 00:13:00,
2013-02-02 16:18:00,51.3,47.3,30.21,North,353,4.0,4.0,86,0.00,,,0.00,LWC V2.00 B2112,2013-02-03 00:18:00,
2013-02-02 16:23:00,51.3,47.6,30.21,SSE,149,1.0,1.0,87,0.00,,,0.00,LWC V2.00 B2112,2013-02-03 00:23:00,
2013-02-02 16:28:00,51.1,47.4,30.21,WNW,300,0.0,0.0,87,0.00,,,0.00,LWC V2.00 B2112,2013-02-03 00:28:00,
2013-02-02 16:33:00,51.0,47.3,30.21,NNW,329,0.0,5.0,87,0.00,,,0.00,LWC V2.00 B2112,2013-02-03 00:33:00,
2013-02-02 16:38:00,50.9,47.2,30.21,SSW,208,0.0,0.0,87,0.00,,,0.00,LWC V2.00 B2112,2013-02-03 00:38:00,
2013-02-02 16:43:00,50.8,47.4,30.21,SSW,208,0.0,0.0,88,0.00,,,0.00,LWC V2.00 B2112,2013-02-03 00:43:00,
2013-02-02 16:48:00,50.5,47.1,30.21,SSW,208,0.0,0.0,88,0.00,,,0.00,LWC V2.00 B2112,2013-02-03 00:48:00,
2013-02-02 16:53:00,50.3,47.2,30.21,SSW,208,0.0,0.0,89,0.00,,,0.00,LWC V2.00 B2112,2013-02-03 00:53:00,
2013-02-02 16:58:00,50.1,47.0,30.21,SSW,212,0.0,0.0,89,0.00,,,0.00,LWC V2.00 B2112,2013-02-03 00:58:00,
2013-02-02 17:03:00,49.9,46.8,30.21,SSW,212,0.0,0.0,89,0.00,,,0.00,LWC V2.00 B2112,2013-02-03 01:03:00,
2013-02-02 17:08:00,49.7,46.9,30.21,ESE,115,0.0,0.0,90,0.00,,,0.00,LWC V2.00 B2112,2013-02-03 01:08:00,
2013-02-02 17:13:00,49.5,46.7,30.21,SW,233,0.0,0.0,90,0.00,,,0.00,LWC V2.00 B2112,2013-02-03 01:13:00,
2013-02-02 17:18:00,49.4,46.9,30.21,SW,229,0.0,0.0,91,0.00,,,0.00,LWC V2.00 B2112,2013-02-03 01:18:00,
2013-02-02 17:23:00,49.2,46.7,30.21,ESE,117,0.0,0.0,91,0.00,,,0.00,LWC V2.00 B2112,2013-02-03 01:23:00,
2013-02-02 17:28:00,49.2,46.7,30.21,SE,131,0.0,0.0,91,0.00,,,0.00,LWC V2.00 B2112,2013-02-03 01:28:00,
2013-02-02 17:33:00,49.1,46.6,30.21,SE,124,0.0,0.0,91,0.00,,,0.00,LWC V2.00 B2112,2013-02-03 01:33:00,
2013-02-02 17:38:00,48.9,46.7,30.22,SE,126,0.0,0.0,92,0.00,,,0.00,LWC V2.00 B2112,2013-02-03 01:38:00,
2013-02-02 17:43:00,48.8,46.6,30.22,SE,126,0.0,0.0,92,0.00,,,0.00,LWC V2.00 B2112,2013-02-03 01:43:00,
2013-02-02 17:48:00,48.5,46.3,30.22,SE,126,0.0,0.0,92,0.00,,,0.00,LWC V2.00 B2112,2013-02-03 01:48:00,
2013-02-02 17:53:00,48.2,46.0,30.22,SE,126,0.0,0.0,92,0.00,,,0.00,LWC V2.00 B2112,2013-02-03 01:53:00,
2013-02-02 17:58:00,47.9,45.7,30.22,SE,125,0.0,0.0,92,0.00,,,0.00,LWC V2.00 B2112,2013-02-03 01:58:00,
2013-02-02 18:03:00,47.7,45.5,30.22,SE,126,0.0,0.0,92,0.00,,,0.00,LWC V2.00 B2112,2013-02-03 02:03:00,
2013-02-02 18:08:00,47.3,45.4,30.22,SE,126,0.0,0.0,93,0.00,,,0.00,LWC V2.00 B2112,2013-02-03 02:08:00,
2013-02-02 18:13:00,47.2,45.3,30.22,SE,126,0.0,0.0,93,0.00,,,0.00,LWC V2.00 B2112,2013-02-03 02:13:00,
2013-02-02 18:18:00,47.0,45.1,30.22,SE,126,0.0,0.0,93,0.00,,,0.00,LWC V2.00 B2112,2013-02-03 02:18:00,
2013-02-02 18:23:00,46.9,45.3,30.22,SE,124,0.0,0.0,94,0.00,,,0.00,LWC V2.00 B2112,2013-02-03 02:23:00,
2013-02-02 18:28:00,47.0,45.4,30.22,SE,124,0.0,0.0,94,0.00,,,0.00,LWC V2.00 B2112,2013-02-03 02:28:00,
2013-02-02 18:33:00,47.1,45.5,30.22,SE,124,0.0,0.0,94,0.00,,,0.00,LWC V2.00 B2112,2013-02-03 02:33:00,
2013-02-02 18:38:00,47.1,45.5,30.22,WSW,247,0.0,0.0,94,0.00,,,0.00,LWC V2.00 B2112,2013-02-03 02:38:00,
2013-02-02 18:43:00,47.3,45.9,30.22,ESE,102,0.0,0.0,95,0.00,,,0.00,LWC V2.00 B2112,2013-02-03 02:43:00,
2013-02-02 18:48:00,47.2,45.8,30.22,NE,47,0.0,1.0,95,0.00,,,0.00,LWC V2.00 B2112,2013-02-03 02:48:00,
2013-02-02 18:53:00,47.2,45.8,30.22,ESE,110,0.0,2.0,95,0.00,,,0.00,LWC V2.00 B2112,2013-02-03 02:53:00,
2013-02-02 18:58:00,47.3,45.9,30.22,SE,139,0.0,0.0,95,0.00,,,0.00,LWC V2.00 B2112,2013-02-03 02:58:00,
2013-02-02 19:03:00,47.2,45.8,30.22,NE,37,0.0,3.0,95,0.00,,,0.00,LWC V2.00 B2112,2013-02-03 03:03:00,
2013-02-02 19:09:00,47.3,45.9,30.22,ESE,122,0.0,0.0,95,0.00,,,0.00,LWC V2.00 B2112,2013-02-03 03:09:00,
2013-02-02 19:14:00,47.2,45.8,30.22,NNE,25,0.0,0.0,95,0.00,,,0.00,LWC V2.00 B2112,2013-02-03 03:14:00,
2013-02-02 19:19:00,47.2,45.8,30.22,NNE,25,0.0,0.0,95,0.00,,,0.00,LWC V2.00 B2112,2013-02-03 03:19:00,
2013-02-02 19:24:00,46.9,45.5,30.22,NNE,25,0.0,0.0,95,0.00,,,0.00,LWC V2.00 B2112,2013-02-03 03:24:00,
2013-02-02 19:29:00,46.7,45.3,30.22,East,82,0.0,0.0,95,0.00,,,0.00,LWC V2.00 B2112,2013-02-03 03:29:00,
2013-02-02 19:34:00,46.6,45.2,30.22,ESE,113,0.0,0.0,95,0.00,,,0.00,LWC V2.00 B2112,2013-02-03 03:34:00,
2013-02-02 19:39:00,46.3,44.9,30.22,ESE,113,0.0,0.0,95,0.00,,,0.00,LWC V2.00 B2112,2013-02-03 03:39:00,
2013-02-02 19:44:00,46.5,45.1,30.22,East,95,0.0,0.0,95,0.00,,,0.00,LWC V2.00 B2112,2013-02-03 03:44:00,
2013-02-02 19:49:00,46.3,44.9,30.22,WNW,287,0.0,0.0,95,0.00,,,0.00,LWC V2.00 B2112,2013-02-03 03:49:00,
2013-02-02 19:54:00,46.0,44.6,30.22,ESE,115,0.0,0.0,95,0.00,,,0.00,LWC V2.00 B2112,2013-02-03 03:54:00,
2013-02-02 19:59:00,45.8,44.4,30.22,ESE,114,0.0,0.0,95,0.00,,,0.00,LWC V2.00 B2112,2013-02-03 03:59:00,
2013-02-02 20:04:00,45.5,44.2,30.22,ESE,114,0.0,0.0,95,0.00,,,0.00,LWC V2.00 B2112,2013-02-03 04:04:00,
2013-02-02 20:09:00,45.4,44.1,30.22,ESE,115,0.0,0.0,95,0.00,,,0.00,LWC V2.00 B2112,2013-02-03 04:09:00,
2013-02-02 20:11:00,45.5,44.4,30.22,NE,51,0.0,1.0,96,0.00,,,0.00,LWC V2.00 B2112,2013-02-03 04:11:00,
2013-02-02 20:16:00,45.5,44.4,30.22,NE,50,0.0,1.0,96,0.00,,,0.00,LWC V2.00 B2112,2013-02-03 04:16:00,
2013-02-02 20:21:00,45.4,44.1,30.22,NE,50,0.0,0.0,95,0.00,,,0.00,LWC V2.00 B2112,2013-02-03 04:21:00,
2013-02-02 20:26:00,45.2,43.9,30.22,NE,51,0.0,0.0,95,0.00,,,0.00,LWC V2.00 B2112,2013-02-03 04:26:00,
2013-02-02 20:31:00,45.0,43.7,30.22,NE,51,0.0,0.0,95,0.00,,,0.00,LWC V2.00 B2112,2013-02-03 04:31:00,
2013-02-02 20:36:00,44.7,43.4,30.22,NE,50,0.0,0.0,95,0.00,,,0.00,LWC V2.00 B2112,2013-02-03 04:36:00,
2013-02-02 20:41:00,44.7,43.4,30.22,East,83,0.0,0.0,95,0.00,,,0.00,LWC V2.00 B2112,2013-02-03 04:41:00,
2013-02-02 20:46:00,44.6,43.5,30.22,East,84,0.0,0.0,96,0.00,,,0.00,LWC V2.00 B2112,2013-02-03 04:46:00,
2013-02-02 20:51:00,44.7,43.6,30.22,East,85,0.0,0.0,96,0.00,,,0.00,LWC V2.00 B2112,2013-02-03 04:51:00,
2013-02-02 20:56:00,44.8,43.7,30.22,East,85,0.0,0.0,96,0.00,,,0.00,LWC V2.00 B2112,2013-02-03 04:56:00,
2013-02-02 21:00:00,44.8,43.7,30.22,ENE,70,0.0,0.0,96,0.00,,,0.00,LWC V2.00 B2112,2013-02-03 05:00:00,
2013-02-02 21:01:00,44.8,43.7,30.22,ENE,70,0.0,0.0,96,0.00,,,0.00,LWC V2.00 B2112,2013-02-03 05:01:00,
2013-02-02 21:06:00,44.6,43.5,30.22,ENE,69,0.0,0.0,96,0.00,,,0.00,LWC V2.00 B2112,2013-02-03 05:06:00,
2013-02-02 21:11:00,44.6,43.5,30.22,East,92,0.0,0.0,96,0.00,,,0.00,LWC V2.00 B2112,2013-02-03 05:11:00,
2013-02-02 21:16:00,44.6,43.5,30.21,East,91,0.0,0.0,96,0.00,,,0.00,LWC V2.00 B2112,2013-02-03 05:16:00,
2013-02-02 21:21:00,44.5,43.4,30.21,East,90,0.0,0.0,96,0.00,,,0.00,LWC V2.00 B2112,2013-02-03 05:21:00,
2013-02-02 21:26:00,44.4,43.3,30.21,East,90,0.0,0.0,96,0.00,,,0.00,LWC V2.00 B2112,2013-02-03 05:26:00,
2013-02-02 21:31:00,44.4,43.3,30.21,NNW,339,0.0,0.0,96,0.00,,,0.00,LWC V2.00 B2112,2013-02-03 05:31:00,
2013-02-02 21:36:00,44.4,43.3,30.21,NNW,339,0.0,0.0,96,0.00,,,0.00,LWC V2.00 B2112,2013-02-03 05:36:00,
2013-02-02 21:41:00,44.3,43.2,30.21,NNW,338,0.0,0.0,96,0.00,,,0.00,LWC V2.00 B2112,2013-02-03 05:41:00,
2013-02-02 21:46:00,44.1,43.0,30.21,NNW,339,0.0,0.0,96,0.00,,,0.00,LWC V2.00 B2112,2013-02-03 05:46:00,
2013-02-02 21:51:00,43.9,42.8,30.21,NNW,338,0.0,0.0,96,0.00,,,0.00,LWC V2.00 B2112,2013-02-03 05:51:00,
2013-02-02 21:56:00,43.8,42.7,30.21,NNW,339,0.0,0.0,96,0.00,,,0.00,LWC V2.00 B2112,2013-02-03 05:56:00,
2013-02-02 22:01:00,43.6,42.5,30.21,NNW,338,0.0,0.0,96,0.00,,,0.00,LWC V2.00 B2112,2013-02-03 06:01:00,
2013-02-02 22:06:00,43.5,42.4,30.21,NNW,339,0.0,0.0,96,0.00,,,0.00,LWC V2.00 B2112,2013-02-03 06:06:00,
2013-02-02 22:11:00,43.3,42.2,30.21,NNW,339,0.0,0.0,96,0.00,,,0.00,LWC V2.00 B2112,2013-02-03 06:11:00,
2013-02-02 22:16:00,43.2,42.1,30.21,NNW,339,0.0,0.0,96,0.00,,,0.00,LWC V2.00 B2112,2013-02-03 06:16:00,
2013-02-02 22:21:00,43.0,41.9,30.21,NNW,339,0.0,0.0,96,0.00,,,0.00,LWC V2.00 B2112,2013-02-03 06:21:00,
2013-02-02 22:26:00,42.8,41.7,30.21,NNW,338,0.0,0.0,96,0.00,,,0.00,LWC V2.00 B2112,2013-02-03 06:26:00,
2013-02-02 22:31:00,42.6,41.5,30.21,NNW,339,0.0,0.0,96,0.00,,,0.00,LWC V2.00 B2112,2013-02-03 06:31:00,
2013-02-02 22:36:00,42.5,41.4,30.21,NNW,339,0.0,0.0,96,0.00,,,0.00,LWC V2.00 B2112,2013-02-03 06:36:00,
2013-02-02 22:41:00,42.4,41.6,30.21,NNW,339,0.0,0.0,97,0.00,,,0.00,LWC V2.00 B2112,2013-02-03 06:41:00,
2013-02-02 22:46:00,42.3,41.5,30.21,NNW,338,0.0,0.0,97,0.00,,,0.00,LWC V2.00 B2112,2013-02-03 06:46:00,
2013-02-02 22:51:00,42.1,41.3,30.21,NNW,339,0.0,0.0,97,0.00,,,0.00,LWC V2.00 B2112,2013-02-03 06:51:00,
2013-02-02 22:56:00,41.9,41.1,30.21,NNW,340,0.0,0.0,97,0.00,,,0.00,LWC V2.00 B2112,2013-02-03 06:56:00,
2013-02-02 23:01:00,41.9,41.1,30.21,NNW,340,0.0,0.0,97,0.00,,,0.00,LWC V2.00 B2112,2013-02-03 07:01:00,
2013-02-02 23:06:00,42.2,41.4,30.21,NNW,338,0.0,0.0,97,0.00,,,0.00,LWC V2.00 B2112,2013-02-03 07:06:00,
2013-02-02 23:11:00,42.6,41.8,30.21,NNW,338,0.0,0.0,97,0.00,,,0.00,LWC V2.00 B2112,2013-02-03 07:11:00,
2013-02-02 23:16:00,43.0,42.5,30.21,SW,233,0.0,1.0,98,0.00,,,0.00,LWC V2.00 B2112,2013-02-03 07:16:00,
2013-02-02 23:21:00,43.1,42.3,30.22,SW,235,0.0,0.0,97,0.00,,,0.00,LWC V2.00 B2112,2013-02-03 07:21:00,
2013-02-02 23:26:00,43.2,42.4,30.22,SSW,211,0.0,0.0,97,0.00,,,0.00,LWC V2.00 B2112,2013-02-03 07:26:00,
2013-02-02 23:31:00,43.5,43.0,30.21,NW,319,0.0,0.0,98,0.00,,,0.00,LWC V2.00 B2112,2013-02-03 07:31:00,
2013-02-02 23:36:00,43.7,43.2,30.22,East,79,0.0,0.0,98,0.00,,,0.00,LWC V2.00 B2112,2013-02-03 07:36:00,
2013-02-02 23:41:00,43.9,43.4,30.22,NE,50,0.0,0.0,98,0.00,,,0.00,LWC V2.00 B2112,2013-02-03 07:41:00,
2013-02-02 23:46:00,44.5,44.0,30.21,NNW,329,0.0,1.0,98,0.00,,,0.00,LWC V2.00 B2112,2013-02-03 07:46:00,
2013-02-02 23:51:00,44.4,43.9,30.21,NE,36,0.0,0.0,98,0.00,,,0.00,LWC V2.00 B2112,2013-02-03 07:51:00,
2013-02-02 23:56:00,44.4,43.6,30.21,ESE,115,0.0,1.0,97,0.00,,,0.00,LWC V2.00 B2112,2013-02-03 07:56:00,